User: anonymous   Login
Location: Unspecified
(33.6682°S, 0.0000°E)
Time: 17:46:31
(UTC+00:00)
Language:

S-56A Canister/Altair - Orbit

View from above orbital plane
View from above orbital plane
View from above satellite
View from above satellite

Ground track
Ground track

The orbit data is extracted from the following two-line orbital elements,

1    82U 61004B   19170.87205188 +.00000024 +00000-0 +64101-4 0  9990
2    82 038.8553 104.6310 1174581 128.8321 242.3236 12.26038131763185
Epoch (UTC): 19 June 2019 20:55:45
Eccentricity: 0.1174581
inclination: 38.8553°
perigee height: 633 km
apogee height: 2499 km
right ascension of ascending node: 104.6310°
argument of perigee: 128.8321°
revolutions per day: 12.26038131
mean anomaly at epoch: 242.3236°
orbit number at epoch: 76318

The dashed part of the orbit path shows where the satellite is in the earth's shadow,  

DLR